Flag for Germany Weather past 2 weeks in Weinheim, Baden-Württemberg, Germany

Now
55 °F

Mostly cloudy.


Feels Like: 55 °F
Forecast: 46 / 61 °F
Wind: 3 mph from Southeast

Location: Baden Wurttemberg - Neuostheim

Current Time: Oct 25, 2014 at 10:00:28 PM

Latest Report: Oct 25, 2014 at 9:20 PM


Visibility: N/A

Pressure: 30.21 "Hg

Humidity: 82%

Dew point: 50 °F

Location of WeinheimLocation

Historic Weather in Weinheim — Graph

°F

Weinheim temperature yesterday

Maximum temperature yesterday: 59 °F (at 3:20 PM)
Minimum temperature yesterday: 37 °F (at 6:20 AM)
Average temperature yesterday: 50 °F

Past Weeks' High & Low Weather Summary

 TemperatureHumidityPressure
High75 °F (Oct 19, 4:20 PM)100% (Oct 11, 7:20 AM)30.30 "Hg (Oct 11, 7:20 AM)
Low37 °F (Oct 24, 6:20 AM)57% (Oct 14, 3:20 PM)29.62 "Hg (Oct 21, 5:50 PM)
Average59 °F80%29.98 "Hg
* Reported Oct 10 8:20 PM — Oct 25 8:50 PM, Weinheim, Weather by CustomWeather, © 2014

Note: Actual official high and low records may vary slightly from our data, if they occured in-between our weather recording intervals... More about our weather records

Advertising

Weinheim weather history for previous 24 hours

 ConditionsComfort  
Time TempWeatherWind HumidityBarometerVisibility
8:50 PM
Oct 25
55 °FClear.3 mph82%30.18 "Hg10 mi
8:20 PM55 °FOvercast.2 mph77%30.18 "HgN/A
7:50 PM57 °FMostly cloudy.2 mph72%30.18 "HgN/A
7:20 PM57 °FOvercast.2 mph72%30.18 "HgN/A
6:50 PM57 °FMostly cloudy.2 mph72%30.18 "HgN/A
6:20 PM57 °FOvercast.2 mph72%30.15 "HgN/A
5:50 PM59 °FOvercast.3 mph68%30.15 "HgN/A
5:20 PM59 °FPartly sunny.3 mph68%30.15 "HgN/A
4:50 PM59 °FPartly sunny.3 mph63%30.15 "HgN/A
4:20 PM59 °FPartly sunny.5 mph63%30.15 "HgN/A
3:50 PM59 °FPartly sunny.5 mph68%30.15 "HgN/A
3:20 PM59 °FPartly sunny.5 mph63%30.15 "HgN/A
2:50 PM59 °FPartly sunny.5 mph68%30.15 "HgN/A
2:20 PM59 °FPartly sunny.5 mph63%30.15 "HgN/A
1:50 PM57 °FPartly sunny.5 mph67%30.15 "HgN/A
1:20 PM57 °FOvercast.5 mph72%30.15 "HgN/A
12:50 PM55 °FPartly sunny.6 mph72%30.15 "HgN/A
12:20 PM55 °FBroken clouds.5 mph77%30.15 "HgN/A
11:50 AM54 °FBroken clouds.5 mph77%30.15 "HgN/A
11:20 AM54 °FBroken clouds.5 mph77%30.15 "HgN/A
10:50 AM52 °FScattered clouds.5 mph82%30.15 "HgN/A
10:20 AM52 °FBroken clouds.6 mph82%30.12 "HgN/A
9:50 AM50 °FScattered clouds.3 mph88%30.12 "HgN/A
9:20 AM50 °FDrizzle. Partly sunny.3 mph88%30.12 "HgN/A
8:50 AM50 °FPassing clouds.3 mph82%30.12 "HgN/A
8:20 AM50 °FPassing clouds.2 mph82%30.12 "HgN/A
7:50 AM50 °FDrizzle. Overcast.5 mph82%30.09 "HgN/A
Weather by CustomWeather, © 2014

See weather overviewHow to use our weather pages